Volver al catálogo

SL-16 R/B

ActivoLEO
NORAD 28353·ROCKET BODY·🇷🇺 Russia

Lanzado Jun 10, 2004 desde Baikonur Cosmodrome

Loading…

Próximos Pases (próximas 24 horas)

TLE

ActualizadoSource: Space-Track

Época: Sep 14, 2026, 06:11 UTC

1 28353U 04021B   26257.25806255 -.00000257  00000-0 -10884-3 0  9993
2 28353  71.0002 196.7583 0002950 130.5879 229.5501 14.14618644149503

Sigue SL-16 R/B en tiempo real con AllMySat

Download on the App Store